Regional Weather Roundup
Issued by NWS

Home | Current Version | Previous Version | Text Only | Print | Product List | Glossary Off
Versions: 1 2 3 4 5 6 7 8 9 10 11 12 13 14 15 16 17 18 19 20 21 22 23 24 25 26 27 28 29 30 31 32 33 34 35 36 37 38 39 40 41 42 43 44 45 46 47 48 49 50

000
ASUS45 KCYS 131410
RWRWY

WYOMING REGIONAL WEATHER ROUNDUP
NATIONAL WEATHER SERVICE CHEYENNE WY
700 AM MST SAT FEB 13 2016

NOTE:  "FAIR" INDICATES FEW OR NO CLOUDS BELOW 12,000 FEET
WITH NO SIGNIFICANT WEATHER AND/OR OBSTRUCTIONS TO VISIBILITY.

WYZ001-131500-
YELLOWSTONE NATIONAL PARK

CITY           SKY/WX    TMP DP  RH WIND       PRES   REMARKS
LK YELLOWSTONE   N/A     23  20  88 CALM      30.10F
W YELLOWSTONE  NOT AVBL

$$
WYZ002>013-054>058-071-098>099-131500-
NORTHERN WYOMING

CITY           SKY/WX    TMP DP  RH WIND       PRES   REMARKS
JACKSON        CLEAR     25  23  93 CALM      30.12F
CODY           FAIR      46  28  49 W15G26    29.95R
GREYBULL       FAIR      34  29  82 CALM      29.98S
WORLAND        FAIR      31  29  92 SE5       29.98F WCI  26
SHERIDAN       CLOUDY    36  30  80 SW5       29.90F WCI  32
BUFFALO        MOCLDY    46  24  42 VRB5      29.94S
GILLETTE       CLOUDY    33  28  81 SE13      29.94S WCI  24
HULETT         FAIR      32  30  93 SW3       29.95F
NEWCASTLE      FAIR      28  27  93 CALM      30.02S

$$
WYZ014>020-022>026-101>103-131500-
CENTRAL WYOMING

CITY           SKY/WX    TMP DP  RH WIND       PRES   REMARKS
BIG PINEY      MOCLDY    20  16  84 CALM      30.17F
PINEDALE         N/A    N/A N/A N/A MISG        N/A
DUBOIS         FAIR      34  23  64 NW13G18   30.08S WCI  25
LANDER         FAIR      34  20  56 W10       30.06R WCI  26
RIVERTON       FAIR      29  23  78 SE3       30.06S
CASPER         FAIR      39  23  52 SW21      30.03R WCI  29
DOUGLAS        FOG       28  28 100 CALM      30.02F VSB 1/2

$$
WYZ021-027>030-104>119-131500-
SOUTHERN WYOMING

CITY           SKY/WX    TMP DP  RH WIND       PRES   REMARKS
EVANSTON       FAIR      27  12  53 SW10      30.22R WCI  17
FORT BRIDGER   MOSUNNY   32  18  55 W15       30.22R WCI  22
ROCK SPRINGS   FAIR      34  17  50 SW10      30.17S WCI  26
DIXON          FAIR      17  12  80 E3        30.25R
RAWLINS        FAIR      37  19  48 SW18      30.13F WCI  27
SARATOGA       FAIR      39  16  38 SW14G22   30.17S WCI  31
LARAMIE        FAIR      37  17  44 SW20      30.10F WCI  27
CHEYENNE       FAIR      37  20  50 W6        30.05F WCI  32
TORRINGTON     FOG       26  25  96 CALM      30.05S VSB 1/4
PINE BLUFFS    FOG       28  27  93 S9        30.08S VSB 1/2 WCI  20

$$



USA.gov is the U.S. government's official web portal to all federal, state and local government web resources and services.